When you browse on this site, cookies collect data to enhance your experience and personalize the content and advertising you see.
Visit our Privacy Policy to learn more. By continuing to use the site, you agree to this use of cookies and data.
  • In Österreich
  • Länderverzeichnis
  • Für 7 Tage
  • Wassertemperatur
  • Wetterkarte
  • News
  • Widgets
  • user-avatar
    Anmelden

    Stündliche Wetter Warna

    Heute, 15 Oktober, Dienstag

    Zeit Temperatur Niederschläge Wind Luftdruck Luftfeuchtigkeit
    00:00 +14°C° 0 mm 1 m/S 750 mmHg 93%
    01:00 +14°C° 0 mm 1 m/S 750 mmHg 94%
    02:00 +12°C° 0 mm 0 m/S 749 mmHg 94%
    03:00 +12°C° 0 mm 0 m/S 749 mmHg 94%
    04:00 +12°C° 0 mm 0 m/S 749 mmHg 94%
    05:00 +12°C° 0 mm 0 m/S 749 mmHg 94%
    06:00 +14°C° 0 mm 1 m/S 749 mmHg 92%
    07:00 +14°C° 0 mm 1 m/S 749 mmHg 91%
    08:00 +15°C° 0 mm 1 m/S 749 mmHg 89%
    09:00 +18°C° 0 mm 1 m/S 749 mmHg 80%
    10:00 +19°C° 0 mm 2 m/S 749 mmHg 71%
    11:00 +20°C° 0 mm 2 m/S 749 mmHg 63%
    12:00 +21°C° 0 mm 2 m/S 749 mmHg 61%
    13:00 +21°C° 0 mm 2 m/S 749 mmHg 59%
    14:00 +23°C° 0 mm 2 m/S 748 mmHg 57%
    15:00 +20°C° 0 mm 2 m/S 748 mmHg 65%
    16:00 +19°C° 0 mm 2 m/S 748 mmHg 72%
    17:00 +18°C° 0 mm 2 m/S 747 mmHg 79%
    18:00 +17°C° 0 mm 2 m/S 747 mmHg 84%
    19:00 +16°C° 0 mm 2 m/S 748 mmHg 89%
    20:00 +15°C° 0 mm 2 m/S 748 mmHg 93%
    21:00 +15°C° 0 mm 2 m/S 748 mmHg 94%
    22:00 +15°C° 0 mm 1 m/S 748 mmHg 94%
    23:00 +14°C° 0 mm 1 m/S 748 mmHg 94%

    Morgen, 16 Oktober, Mittwoch

    Zeit Temperatur Niederschläge Wind Luftdruck Luftfeuchtigkeit
    00:00 +14°C° 0 mm 1 m/S 748 mmHg 94%
    01:00 +14°C° 0 mm 1 m/S 748 mmHg 94%
    02:00 +14°C° 0 mm 1 m/S 748 mmHg 94%
    03:00 +13°C° 0 mm 1 m/S 748 mmHg 94%
    04:00 +13°C° 0 mm 1 m/S 747 mmHg 94%
    05:00 +13°C° 0 mm 1 m/S 747 mmHg 94%
    06:00 +14°C° 0 mm 1 m/S 748 mmHg 91%
    07:00 +15°C° 0 mm 1 m/S 748 mmHg 89%
    08:00 +15°C° 0 mm 1 m/S 748 mmHg 87%
    09:00 +17°C° 0 mm 2 m/S 748 mmHg 76%
    10:00 +19°C° 0 mm 2 m/S 748 mmHg 66%
    11:00 +21°C° 0 mm 2 m/S 748 mmHg 55%
    12:00 +21°C° 0 mm 2 m/S 748 mmHg 52%
    13:00 +23°C° 0 mm 2 m/S 748 mmHg 49%
    14:00 +24°C° 0 mm 2 m/S 747 mmHg 46%
    15:00 +21°C° 0 mm 2 m/S 747 mmHg 54%
    16:00 +20°C° 0 mm 2 m/S 747 mmHg 61%
    17:00 +19°C° 0 mm 3 m/S 747 mmHg 68%
    18:00 +17°C° 0 mm 2 m/S 747 mmHg 74%
    19:00 +16°C° 0 mm 2 m/S 747 mmHg 79%
    20:00 +15°C° 0 mm 2 m/S 747 mmHg 85%
    21:00 +15°C° 0 mm 2 m/S 747 mmHg 86%
    22:00 +15°C° 0 mm 1 m/S 748 mmHg 87%
    23:00 +14°C° 0 mm 1 m/S 748 mmHg 88%

    übermorgen, 17 Oktober, Donnerstag

    Zeit Temperatur Niederschläge Wind Luftdruck Luftfeuchtigkeit
    00:00 +14°C° 0 mm 1 m/S 748 mmHg 88%
    01:00 +14°C° 0 mm 1 m/S 748 mmHg 87%
    02:00 +14°C° 0 mm 1 m/S 748 mmHg 87%
    03:00 +14°C° 0 mm 1 m/S 748 mmHg 85%
    04:00 +13°C° 0 mm 1 m/S 748 mmHg 83%
    05:00 +13°C° 0 mm 1 m/S 747 mmHg 81%
    06:00 +14°C° 0 mm 1 m/S 748 mmHg 77%
    07:00 +15°C° 0 mm 1 m/S 748 mmHg 73%
    08:00 +16°C° 0 mm 1 m/S 748 mmHg 68%
    09:00 +19°C° 0 mm 1 m/S 748 mmHg 61%
    10:00 +21°C° 0 mm 1 m/S 748 mmHg 53%
    11:00 +22°C° 0 mm 1 m/S 748 mmHg 46%
    12:00 +23°C° 0 mm 2 m/S 748 mmHg 44%
    13:00 +24°C° 0 mm 2 m/S 748 mmHg 43%
    14:00 +24°C° 0 mm 2 m/S 748 mmHg 41%
    15:00 +23°C° 0 mm 2 m/S 748 mmHg 48%
    16:00 +21°C° 0 mm 1 m/S 748 mmHg 55%
    17:00 +20°C° 0 mm 1 m/S 747 mmHg 61%
    18:00 +19°C° 0 mm 1 m/S 748 mmHg 64%
    19:00 +18°C° 0 mm 1 m/S 748 mmHg 67%
    20:00 +16°C° 0 mm 0 m/S 748 mmHg 70%
    21:00 +15°C° 0 mm 0 m/S 748 mmHg 68%
    22:00 +15°C° 0 mm 0 m/S 748 mmHg 67%
    23:00 +15°C° 0 mm 0 m/S 748 mmHg 66%

    18 Oktober, Freitag

    Zeit Temperatur Niederschläge Wind Luftdruck Luftfeuchtigkeit
    00:00 +15°C° 0 mm 0 m/S 748 mmHg 65%
    01:00 +14°C° 0 mm 0 m/S 748 mmHg 65%
    02:00 +15°C° 0 mm 1 m/S 748 mmHg 65%
    03:00 +15°C° 0 mm 1 m/S 748 mmHg 64%
    04:00 +15°C° 0 mm 1 m/S 748 mmHg 64%
    05:00 +15°C° 0 mm 1 m/S 748 mmHg 63%
    06:00 +15°C° 0 mm 1 m/S 748 mmHg 61%
    07:00 +16°C° 0 mm 1 m/S 748 mmHg 58%
    08:00 +18°C° 0 mm 1 m/S 748 mmHg 56%
    09:00 +20°C° 0 mm 1 m/S 749 mmHg 50%
    10:00 +22°C° 0 mm 1 m/S 749 mmHg 44%
    11:00 +23°C° 0 mm 1 m/S 749 mmHg 38%
    12:00 +24°C° 0 mm 2 m/S 749 mmHg 37%
    13:00 +24°C° 0 mm 2 m/S 749 mmHg 36%
    14:00 +25°C° 0 mm 2 m/S 748 mmHg 35%
    15:00 +23°C° 0 mm 2 m/S 748 mmHg 44%
    16:00 +21°C° 0 mm 2 m/S 748 mmHg 53%
    17:00 +19°C° 0 mm 2 m/S 748 mmHg 62%
    18:00 +18°C° 0 mm 2 m/S 748 mmHg 68%
    19:00 +17°C° 0 mm 2 m/S 748 mmHg 75%
    20:00 +16°C° 0 mm 1 m/S 748 mmHg 81%
    21:00 +16°C° 0 mm 1 m/S 748 mmHg 79%
    22:00 +15°C° 0 mm 1 m/S 748 mmHg 78%
    23:00 +15°C° 0 mm 1 m/S 749 mmHg 77%

    19 Oktober, Samstag

    Zeit Temperatur Niederschläge Wind Luftdruck Luftfeuchtigkeit
    00:00 +15°C° 0 mm 1 m/S 748 mmHg 76%
    01:00 +15°C° 0 mm 1 m/S 748 mmHg 75%
    02:00 +14°C° 0 mm 1 m/S 748 mmHg 74%
    03:00 +14°C° 0 mm 1 m/S 748 mmHg 74%
    04:00 +14°C° 0 mm 2 m/S 748 mmHg 74%
    05:00 +14°C° 0 mm 2 m/S 749 mmHg 74%
    06:00 +14°C° 0 mm 2 m/S 749 mmHg 72%
    07:00 +15°C° 0 mm 2 m/S 749 mmHg 69%
    08:00 +16°C° 0 mm 2 m/S 749 mmHg 67%
    09:00 +18°C° 0 mm 2 m/S 749 mmHg 60%
    10:00 +20°C° 0 mm 2 m/S 749 mmHg 52%
    11:00 +21°C° 0 mm 3 m/S 749 mmHg 45%
    12:00 +22°C° 0 mm 3 m/S 749 mmHg 43%
    13:00 +24°C° 0 mm 3 m/S 749 mmHg 42%
    14:00 +24°C° 0 mm 3 m/S 749 mmHg 40%
    15:00 +22°C° 0 mm 3 m/S 749 mmHg 47%
    16:00 +20°C° 0 mm 3 m/S 749 mmHg 54%
    17:00 +19°C° 0 mm 3 m/S 749 mmHg 61%
    18:00 +18°C° 0 mm 3 m/S 749 mmHg 69%
    19:00 +17°C° 0 mm 3 m/S 749 mmHg 76%
    20:00 +14°C° 0 mm 3 m/S 749 mmHg 84%
    21:00 +14°C° 0 mm 3 m/S 749 mmHg 86%
    22:00 +15°C° 0 mm 2 m/S 749 mmHg 89%
    23:00 +14°C° 0 mm 2 m/S 749 mmHg 91%

    20 Oktober, Sonntag

    Zeit Temperatur Niederschläge Wind Luftdruck Luftfeuchtigkeit
    00:00 +14°C° 0 mm 2 m/S 749 mmHg 91%
    01:00 +14°C° 0 mm 1 m/S 749 mmHg 91%
    02:00 +14°C° 0 mm 1 m/S 749 mmHg 91%
    03:00 +14°C° 0 mm 1 m/S 749 mmHg 91%
    04:00 +13°C° 0 mm 1 m/S 749 mmHg 91%
    05:00 +13°C° 0 mm 1 m/S 749 mmHg 90%
    06:00 +14°C° 0 mm 1 m/S 749 mmHg 87%
    07:00 +14°C° 0 mm 1 m/S 749 mmHg 83%
    08:00 +15°C° 0 mm 1 m/S 750 mmHg 80%
    09:00 +17°C° 0 mm 2 m/S 750 mmHg 71%
    10:00 +19°C° 0 mm 2 m/S 750 mmHg 62%
    11:00 +20°C° 0 mm 2 m/S 750 mmHg 54%
    12:00 +21°C° 0 mm 2 m/S 750 mmHg 51%
    13:00 +21°C° 0 mm 2 m/S 750 mmHg 49%
    14:00 +22°C° 0 mm 3 m/S 749 mmHg 47%
    15:00 +20°C° 0 mm 2 m/S 749 mmHg 52%
    16:00 +19°C° 0 mm 2 m/S 749 mmHg 58%
    17:00 +18°C° 0 mm 2 m/S 749 mmHg 63%
    18:00 +18°C° 0 mm 1 m/S 749 mmHg 67%
    19:00 +16°C° 0 mm 1 m/S 749 mmHg 71%
    20:00 +15°C° 0 mm 1 m/S 750 mmHg 76%
    21:00 +15°C° 0 mm 1 m/S 750 mmHg 77%
    22:00 +15°C° 0 mm 1 m/S 750 mmHg 79%
    23:00 +14°C° 0 mm 1 m/S 750 mmHg 81%
    Mehr zeigen